Regional Weather Roundup
Issued by NWS

Home | Current Version | Previous Version | Graphics & Text | Print | Product List | Glossary On
Versions: 1 2 3 4 5 6 7 8 9 10 11 12 13 14 15 16 17 18 19 20 21 22 23 24 25 26 27 28 29 30 31 32 33 34 35 36 37 38 39 40 41 42 43 44 45 46 47 48 49
000
ASUS45 KBOI 041310
RWRID

IDAHO REGIONAL WEATHER ROUNDUP
NATIONAL WEATHER SERVICE BOISE ID
700 AM MDT FRI SEP 04 2015

NOTE: "FAIR" INDICATES FEW OR NO CLOUDS BELOW 12000 FEET
WITH NO SIGNIFICANT WEATHER AND/OR OBSTRUCTIONS TO VISIBILITY

IDZ012-014-041400-
SOUTHWEST IDAHO


CITY           SKY/WX    TMP DP  RH WIND       PRES   REMARKS
BOISE          CLOUDY    51  38  60 W5        29.85R
CALDWELL       MOCLDY    46  27  46 W8        29.87R
MOUNTAIN HOME  DRIZZLE   51  41  69 NW9       29.82F
$$

IDZ016-017-041400-
SOUTHCENTRAL IDAHO


CITY           SKY/WX    TMP DP  RH WIND       PRES   REMARKS
BURLEY         MOCLDY    48  38  68 S3        29.87R
JEROME         MOCLDY    51  38  60 SW5       29.87R
TWIN FALLS     MOCLDY    50  33  52 S10       29.88R
$$

IDZ019>023-041400-
SOUTHEAST IDAHO


CITY           SKY/WX    TMP DP  RH WIND       PRES   REMARKS
IDAHO FALLS    PTCLDY    51  39  63 S8        29.89R
POCATELLO      CLEAR     51  37  58 SW10      29.90R
REXBURG        MOCLDY    51  40  65 S3        29.90R
$$

IDZ006-010-011-018-031-032-041400-
CENTRAL IDAHO MOUNTAINS


CITY           SKY/WX    TMP DP  RH WIND       PRES   REMARKS
MCCALL         PTCLDY    33  31  92 CALM      29.91R
HAILEY         MOCLDY    54  39  58 W9        29.90R
STANLEY          N/A     37  35  92 CALM      30.01S
SALMON         CLOUDY    46  45  93 CALM      29.97R
CHALLIS        LGT RAIN  46  41  82 N7        29.97R
$$

IDZ002-004-006-007-026-041400-
NORTHERN IDAHO


CITY           SKY/WX    TMP DP  RH WIND       PRES   REMARKS
LEWISTON       CLEAR     45  42  89 NW3       29.95R
LOWELL           N/A     48  45  89 CALM      29.96S
COEUR D`ALENE  CLEAR     39  32  75 NE7       29.96S WCI  34
MULLAN PASS    CLEAR     37  33  85 N6        29.97S WCI  32
$$


USA.gov is the U.S. government's official web portal to all federal, state and local government web resources and services.